KF0FUL Weather Reports


time (UTC)temp
F
wind
direction
speed
knots
gust
knots
rain 1hr
in
rain 24hr
in
rain mn
in
humidity
%
barometer
mb
20260906193237 101 265 1.7 3.5 0.00 0.00 0.00 34 1014.0
20260906192737 101 268 2.6 3.5 0.00 0.00 0.00 34 1014.0
20260906192237 101 257 2.6 3.5 0.00 0.00 0.00 34 1014.0
20260906191737 100 260 3.5 5.2 0.00 0.00 0.00 36 1014.0
20260906191238 99 255 2.6 3.5 0.00 0.00 0.00 38 1014.0
20260906190737 98 279 2.6 3.5 0.00 0.00 0.00 37 1014.0
20260906190237 98 252 0.9 1.7 0.00 0.00 0.00 38 1014.0
20260906185738 97 267 1.7 2.6 0.00 0.00 0.00 39 1014.0
20260906185241 97 266 1.7 2.6 0.00 0.00 0.00 38 1014.0
20260906184739 97 280 1.7 3.5 0.00 0.00 0.00 40 1014.0
20260906184237 98 256 2.6 3.5 0.00 0.00 0.00 38 1015.0
20260906183738 99 260 1.7 3.5 0.00 0.00 0.00 36 1015.0
20260906183238 100 266 2.6 3.5 0.00 0.00 0.00 37 1015.0
20260906182738 100 258 3.5 5.2 0.00 0.00 0.00 38 1015.0
20260906182237 100 268 1.7 3.5 0.00 0.00 0.00 36 1015.0
20260906181739 99 265 1.7 1.7 0.00 0.00 0.00 39 1015.0
20260906181237 99 257 1.7 1.7 0.00 0.00 0.00 38 1015.0
20260906180738 99 260 1.7 2.6 0.00 0.00 0.00 37 1015.0
20260906180237 98 269 1.7 2.6 0.00 0.00 0.00 37 1015.0
20260906175746 98 256 2.6 3.5 0.00 0.00 0.00 38 1015.0
20260906175237 98 271 1.7 2.6 0.00 0.00 0.00 38 1015.0
20260906174738 97 259 1.7 3.5 0.00 0.00 0.00 38 1016.0
20260906174237 97 272 1.7 3.5 0.00 0.00 0.00 39 1016.0
20260906173737 97 247 1.7 2.6 0.00 0.00 0.00 39 1016.0
20260906173237 97 254 1.7 2.6 0.00 0.00 0.00 38 1016.0
20260906172738 98 269 1.7 2.6 0.00 0.00 0.00 38 1016.0
20260906172237 97 267 1.7 2.6 0.00 0.00 0.00 38 1016.0
20260906171737 97 263 2.6 3.5 0.00 0.00 0.00 39 1016.0
20260906171237 97 261 3.5 4.3 0.00 0.00 0.00 40 1016.0
20260906170738 97 264 2.6 3.5 0.00 0.00 0.00 39 1016.0
20260906170237 97 257 1.7 3.5 0.00 0.00 0.00 39 1016.0
20260906165738 97 262 1.7 1.7 0.00 0.00 0.00 38 1016.0
20260906165241 97 255 0.9 1.7 0.00 0.00 0.00 39 1016.0
20260906164737 97 281 1.7 1.7 0.00 0.00 0.00 38 1016.0
20260906164237 96 259 1.7 2.6 0.00 0.00 0.00 39 1016.0
20260906163737 96 249 1.7 1.7 0.00 0.00 0.00 39 1017.0
20260906163237 96 269 2.6 3.5 0.00 0.00 0.00 40 1017.0
20260906162738 96 252 1.7 1.7 0.00 0.00 0.00 39 1017.0
20260906162238 95 264 0.9 1.7 0.00 0.00 0.00 40 1017.0
20260906161737 94 268 1.7 2.6 0.00 0.00 0.00 41 1017.0
20260906161237 95 257 1.7 3.5 0.00 0.00 0.00 41 1017.0
20260906160737 94 266 1.7 3.5 0.00 0.00 0.00 43 1017.0
20260906160237 94 268 2.6 3.5 0.00 0.00 0.00 42 1017.0
20260906155737 94 287 1.7 3.5 0.00 0.00 0.00 41 1017.0
20260906155237 94 261 2.6 3.5 0.00 0.00 0.00 42 1016.0
20260906154737 93 258 1.7 2.6 0.00 0.00 0.00 43 1016.0
20260906154237 92 263 2.6 3.5 0.00 0.00 0.00 44 1016.0
20260906153740 92 254 1.7 2.6 0.00 0.00 0.00 46 1016.0
20260906153238 91 260 2.6 3.5 0.00 0.00 0.00 46 1016.0
20260906152739 91 264 1.7 2.6 0.00 0.00 0.00 46 1016.0
20260906152237 91 248 1.7 2.6 0.00 0.00 0.00 48 1016.0
20260906151737 90 267 2.6 3.5 0.00 0.00 0.00 48 1016.0
20260906151237 90 253 1.7 3.5 0.00 0.00 0.00 49 1016.0
20260906150738 90 254 1.7 2.6 0.00 0.00 0.00 49 1016.0
20260906150237 90 301 1.7 2.6 0.00 0.00 0.00 49 1016.0
20260906145738 90 280 2.6 3.5 0.00 0.00 0.00 49 1016.0
20260906145238 90 283 1.7 2.6 0.00 0.00 0.00 47 1016.0
20260906144738 89 310 1.7 2.6 0.00 0.00 0.00 49 1016.0
20260906144237 89 306 1.7 1.7 0.00 0.00 0.00 49 1016.0
20260906143738 88 314 1.7 2.6 0.00 0.00 0.00 50 1016.0
20260906143237 88 313 1.7 1.7 0.00 0.00 0.00 51 1016.0
20260906142738 87 313 1.7 2.6 0.00 0.00 0.00 53 1016.0
20260906142237 87 315 1.7 1.7 0.00 0.00 0.00 55 1016.0
20260906141737 87 309 2.6 3.5 0.00 0.00 0.00 54 1016.0
20260906141237 86 312 1.7 2.6 0.00 0.00 0.00 55 1016.0
20260906140737 86 316 1.7 2.6 0.00 0.00 0.00 54 1016.0
20260906140238 86 315 1.7 2.6 0.00 0.00 0.00 55 1016.0
20260906135737 86 306 1.7 1.7 0.00 0.00 0.00 55 1016.0
20260906135237 86 296 0.9 0.9 0.00 0.00 0.00 56 1016.0
20260906134741 86 306 0.9 1.7 0.00 0.00 0.00 55 1016.0
20260906134237 86 307 0.9 1.7 0.00 0.00 0.00 56 1016.0
20260906133737 85 308 0.9 0.9 0.00 0.00 0.00 57 1016.0
20260906133237 85 311 0.9 0.9 0.00 0.00 0.00 59 1016.0
20260906132738 84 310 0.9 0.9 0.00 0.00 0.00 60 1016.0
20260906132238 83 310 0.9 0.9 0.00 0.00 0.00 62 1016.0
20260906131738 82 312 0.9 0.9 0.00 0.00 0.00 63 1016.0
20260906131237 81 315 0.9 0.9 0.00 0.00 0.00 64 1016.0
20260906130737 81 315 0.9 0.9 0.00 0.00 0.00 66 1016.0
20260906130237 80 315 0.9 0.9 0.00 0.00 0.00 67 1016.0
20260906125737 79 316 0.9 0.9 0.00 0.00 0.00 69 1016.0
20260906125237 78 316 0.9 0.9 0.00 0.00 0.00 71 1016.0
20260906124740 78 316 0.9 0.9 0.00 0.00 0.00 72 1015.0
20260906124237 77 315 0.9 0.9 0.00 0.00 0.00 74 1015.0
20260906123737 76 315 0.9 0.9 0.00 0.00 0.00 73 1015.0
20260906123238 76 315 0.9 0.9 0.00 0.00 0.00 73 1015.0
20260906122737 76 315 0.9 0.9 0.00 0.00 0.00 73 1015.0
20260906122237 75 316 0.9 0.9 0.00 0.00 0.00 74 1015.0
20260906121737 75 316 0.9 0.9 0.00 0.00 0.00 75 1015.0
20260906121237 74 316 0.9 1.7 0.00 0.00 0.00 77 1015.0
20260906120738 74 316 0.9 0.9 0.00 0.00 0.00 78 1015.0
20260906120237 74 316 0.9 0.9 0.00 0.00 0.00 79 1015.0
20260906115737 74 316 0.9 0.9 0.00 0.00 0.00 79 1015.0
20260906115238 74 316 0.9 0.9 0.00 0.00 0.00 79 1015.0
20260906114737 74 315 0.9 0.9 0.00 0.00 0.00 79 1015.0
20260906114238 74 312 0.9 1.7 0.00 0.00 0.00 80 1015.0
20260906113737 74 312 0.9 1.7 0.00 0.00 0.00 81 1015.0
20260906113238 74 313 0.9 0.9 0.00 0.00 0.00 83 1015.0
20260906112737 75 315 0.9 1.7 0.00 0.00 0.00 84 1015.0
20260906112237 75 314 1.7 1.7 0.00 0.00 0.00 84 1015.0
20260906111738 75 308 0.9 0.9 0.00 0.00 0.00 84 1015.0
20260906111237 75 301 0.9 1.7 0.00 0.00 0.00 83 1014.0
20260906110737 76 310 0.9 0.9 0.00 0.00 0.00 82 1014.0
20260906110237 76 305 0.9 0.9 0.00 0.00 0.00 81 1014.0
20260906105737 76 307 0.9 0.9 0.00 0.00 0.00 78 1014.0
20260906105237 76 307 0.9 1.7 0.00 0.00 0.00 77 1014.0
20260906104737 76 303 0.9 0.9 0.00 0.00 0.00 78 1014.0
20260906104237 76 307 0.9 0.9 0.00 0.00 0.00 77 1014.0
20260906103737 76 306 0.9 1.7 0.00 0.00 0.00 76 1014.0
20260906103237 77 303 0.9 0.9 0.00 0.00 0.00 77 1014.0
20260906102737 77 309 0.9 0.9 0.00 0.00 0.00 76 1014.0
20260906102237 77 307 0.9 0.9 0.00 0.00 0.00 75 1014.0
20260906101737 77 309 0.9 0.9 0.00 0.00 0.00 72 1014.0
20260906101237 77 305 0.9 0.9 0.00 0.00 0.00 71 1014.0
20260906100737 78 303 0.9 0.9 0.00 0.00 0.00 70 1014.0
20260906100237 78 302 0.9 0.9 0.00 0.00 0.00 70 1014.0
20260906095738 78 305 0.9 1.7 0.00 0.00 0.00 69 1014.0
20260906095237 78 300 0.9 0.9 0.00 0.00 0.00 69 1014.0
20260906094737 78 306 0.9 0.9 0.00 0.00 0.00 70 1014.0
20260906094237 78 297 0.9 1.7 0.00 0.00 0.00 72 1014.0
20260906093737 78 305 0.9 0.9 0.00 0.00 0.00 74 1014.0
20260906093237 78 297 0.9 0.9 0.00 0.00 0.00 75 1014.0
20260906092737 78 303 0.9 1.7 0.00 0.00 0.00 74 1014.0
20260906092238 78 309 0.9 0.9 0.00 0.00 0.00 73 1014.0
20260906091737 78 306 0.9 1.7 0.00 0.00 0.00 73 1014.0
20260906091237 78 302 0.9 1.7 0.00 0.00 0.00 73 1014.0
20260906090737 78 301 0.9 1.7 0.00 0.00 0.00 72 1014.0
20260906090237 78 302 0.9 0.9 0.00 0.00 0.00 71 1014.0
20260906085737 78 304 0.9 1.7 0.00 0.00 0.00 75 1014.0
20260906085237 78 296 0.9 0.9 0.00 0.00 0.00 73 1014.0
20260906084738 79 305 0.9 0.9 0.00 0.00 0.00 70 1014.0
20260906084237 79 300 0.9 0.9 0.00 0.00 0.00 68 1014.0
20260906083737 79 303 0.9 1.7 0.00 0.00 0.00 68 1014.0
20260906083238 79 307 0.9 0.9 0.00 0.00 0.00 68 1014.0
20260906082737 79 303 0.9 1.7 0.00 0.00 0.00 68 1014.0
20260906082237 79 311 0.9 1.7 0.00 0.00 0.00 67 1014.0
20260906081737 80 309 0.9 0.9 0.00 0.00 0.00 67 1014.0
20260906081238 80 305 0.9 1.7 0.00 0.00 0.00 67 1014.0
20260906080737 80 303 0.9 0.9 0.00 0.00 0.00 66 1014.0
20260906080237 80 297 0.9 0.9 0.00 0.00 0.00 64 1014.0
20260906075737 81 297 0.9 0.9 0.00 0.00 0.00 63 1014.0
20260906075237 81 300 0.9 0.9 0.00 0.00 0.00 62 1014.0
20260906074741 81 301 0.9 1.7 0.00 0.00 0.00 61 1014.0
20260906074237 81 296 0.9 0.9 0.00 0.00 0.00 60 1014.0
20260906073737 81 304 0.9 1.7 0.00 0.00 0.00 61 1014.0
20260906073236 81 308 0.9 0.9 0.00 0.00 0.00 61 1014.0
20260906072737 81 304 0.9 1.7 0.00 0.00 0.00 61 1014.0
20260906072237 81 306 0.9 1.7 0.00 0.00 0.00 61 1014.0
20260906071737 82 302 0.9 0.9 0.00 0.00 0.00 60 1014.0
20260906071237 82 296 0.9 1.7 0.00 0.00 0.00 60 1014.0
20260906070738 82 302 0.9 1.7 0.00 0.00 0.00 60 1014.0
20260906070237 82 300 0.9 0.9 0.00 0.00 0.00 60 1014.0
20260906065737 82 302 1.7 1.7 0.00 0.00 0.00 61 1014.0
20260906065237 82 298 0.9 0.9 0.00 0.00 0.00 60 1014.0
20260906064737 82 299 0.9 1.7 0.00 0.00 0.00 60 1014.0
20260906064237 82 301 0.9 1.7 0.00 0.00 0.00 60 1014.0
20260906063738 82 303 0.9 1.7 0.00 0.00 0.00 59 1014.0
20260906063237 83 299 0.9 1.7 0.00 0.00 0.00 59 1014.0
20260906062737 83 302 0.9 1.7 0.00 0.00 0.00 58 1014.0
20260906062238 83 299 0.9 1.7 0.00 0.00 0.00 58 1014.0
20260906061737 83 300 0.9 1.7 0.00 0.00 0.00 58 1014.0
20260906061237 83 299 0.9 1.7 0.00 0.00 0.00 57 1014.0
20260906060738 83 301 0.9 0.9 0.00 0.00 0.00 57 1014.0
20260906060237 84 300 0.9 1.7 0.00 0.00 0.00 56 1014.0
20260906055738 84 303 0.9 1.7 0.00 0.00 0.00 56 1014.0
20260906055238 84 301 0.9 1.7 0.00 0.00 0.00 55 1014.0
20260906054737 84 304 0.9 1.7 0.00 0.00 0.00 55 1014.0
20260906054237 85 306 0.9 1.7 0.00 0.00 0.00 54 1014.0
20260906053737 85 310 0.9 1.7 0.00 0.00 0.00 54 1014.0
20260906053238 85 308 0.9 1.7 0.00 0.00 0.00 54 1014.0
20260906052737 85 307 0.9 1.7 0.00 0.00 0.00 54 1014.0
20260906052237 85 307 1.7 1.7 0.00 0.00 0.00 53 1014.0
20260906051738 85 311 1.7 1.7 0.00 0.00 0.00 53 1014.0
20260906051238 85 304 1.7 1.7 0.00 0.00 0.00 53 1014.0
20260906050739 86 301 1.7 1.7 0.00 0.00 0.00 52 1014.0
20260906050237 86 303 1.7 1.7 0.00 0.00 0.00 52 1014.0
20260906045737 86 301 1.7 1.7 0.00 0.00 0.00 52 1014.0
20260906045237 86 298 1.7 1.7 0.00 0.00 0.00 51 1014.0
20260906044737 86 300 1.7 1.7 0.00 0.00 0.00 51 1014.0
20260906044237 86 300 1.7 1.7 0.00 0.00 0.00 50 1014.0
20260906043737 87 303 1.7 1.7 0.00 0.00 0.00 50 1014.0
20260906043237 87 300 1.7 2.6 0.00 0.00 0.00 50 1014.0
20260906042737 87 308 1.7 1.7 0.00 0.00 0.00 50 1014.0
20260906042237 87 307 1.7 1.7 0.00 0.00 0.00 49 1014.0
20260906041737 88 305 1.7 2.6 0.00 0.00 0.00 49 1014.0
20260906041237 88 303 1.7 2.6 0.00 0.00 0.00 48 1014.0
20260906040739 88 304 1.7 2.6 0.00 0.00 0.00 48 1014.0
20260906040238 88 301 1.7 2.6 0.00 0.00 0.00 47 1014.0
20260906035737 89 301 1.7 3.5 0.00 0.00 0.00 47 1014.0
20260906035237 89 305 2.6 3.5 0.00 0.00 0.00 47 1014.0
20260906034737 89 301 2.6 3.5 0.00 0.00 0.00 47 1014.0
20260906034237 89 308 1.7 3.5 0.00 0.00 0.00 47 1014.0
20260906033737 89 311 2.6 3.5 0.00 0.00 0.00 47 1014.0
20260906033237 89 311 2.6 3.5 0.00 0.00 0.00 47 1014.0
20260906032738 89 296 2.6 3.5 0.00 0.00 0.00 47 1014.0
20260906032238 89 298 2.6 3.5 0.00 0.00 0.00 47 1014.0
20260906031737 90 309 1.7 2.6 0.00 0.00 0.00 47 1014.0
20260906031237 90 306 2.6 3.5 0.00 0.00 0.00 46 1014.0
20260906030737 90 312 1.7 3.5 0.00 0.00 0.00 46 1013.0
20260906030238 90 309 1.7 3.5 0.00 0.00 0.00 46 1013.0
20260906025737 90 306 1.7 2.6 0.00 0.00 0.00 46 1013.0
20260906025237 90 297 2.6 6.1 0.00 0.00 0.00 46 1013.0
20260906024737 90 292 2.6 3.5 0.00 0.00 0.00 46 1013.0
20260906024239 90 278 1.7 2.6 0.00 0.00 0.00 46 1013.0
20260906023737 91 286 1.7 2.6 0.00 0.00 0.00 45 1013.0
20260906023237 91 293 1.7 2.6 0.00 0.00 0.00 45 1013.0
20260906022738 91 296 1.7 2.6 0.00 0.00 0.00 45 1013.0
20260906022239 91 294 1.7 2.6 0.00 0.00 0.00 45 1013.0
20260906021737 91 294 1.7 3.5 0.00 0.00 0.00 45 1013.0
20260906021237 91 299 1.7 3.5 0.00 0.00 0.00 45 1013.0
20260906020737 91 306 1.7 2.6 0.00 0.00 0.00 45 1013.0
20260906020239 91 310 1.7 3.5 0.00 0.00 0.00 45 1013.0
20260906015737 91 311 1.7 3.5 0.00 0.00 0.00 45 1013.0
20260906015237 91 304 1.7 1.7 0.00 0.00 0.00 45 1013.0
20260906014737 91 303 1.7 1.7 0.00 0.00 0.00 45 1013.0
20260906014237 91 306 1.7 1.7 0.00 0.00 0.00 44 1013.0
20260906013738 92 306 1.7 1.7 0.00 0.00 0.00 44 1013.0
20260906013237 92 302 2.6 3.5 0.00 0.00 0.00 43 1013.0
20260906012738 92 299 2.6 3.5 0.00 0.00 0.00 43 1012.0
20260906012237 92 299 2.6 3.5 0.00 0.00 0.00 43 1012.0
20260906011737 92 302 1.7 3.5 0.00 0.00 0.00 43 1012.0
20260906011238 93 298 1.7 2.6 0.00 0.00 0.00 42 1012.0
20260906010737 93 294 1.7 3.5 0.00 0.00 0.00 42 1012.0
20260906010237 93 285 2.6 3.5 0.00 0.00 0.00 42 1012.0
20260906005737 93 277 2.6 3.5 0.00 0.00 0.00 42 1012.0
20260906005237 94 272 1.7 2.6 0.00 0.00 0.00 42 1012.0
20260906004737 94 267 1.7 2.6 0.00 0.00 0.00 41 1012.0
20260906004237 94 288 2.6 4.3 0.00 0.00 0.00 41 1012.0
20260906003737 94 294 3.5 5.2 0.00 0.00 0.00 40 1012.0
20260906003237 95 284 3.5 5.2 0.00 0.00 0.00 40 1012.0
20260906002737 95 277 2.6 5.2 0.00 0.00 0.00 40 1012.0
20260906002237 95 281 2.6 4.3 0.00 0.00 0.00 40 1012.0
20260906001737 95 278 2.6 4.3 0.00 0.00 0.00 40 1012.0
20260906001238 96 286 4.3 5.2 0.00 0.00 0.00 39 1012.0
20260906000737 96 277 3.5 4.3 0.00 0.00 0.00 39 1012.0
20260906000238 96 272 2.6 3.5 0.00 0.00 0.00 39 1012.0
20260905235737 96 268 1.7 2.6 0.00 0.00 0.00 38 1012.0
20260905235237 97 273 1.7 3.5 0.00 0.00 0.00 38 1012.0
20260905234737 97 254 1.7 3.5 0.00 0.00 0.00 38 1012.0
20260905234237 97 270 2.6 5.2 0.00 0.00 0.00 37 1012.0
20260905233737 98 267 1.7 3.5 0.00 0.00 0.00 37 1012.0
20260905233238 98 270 1.7 3.5 0.00 0.00 0.00 36 1012.0
20260905232738 98 276 2.6 4.3 0.00 0.00 0.00 36 1012.0
20260905232237 98 273 2.6 5.2 0.00 0.00 0.00 36 1012.0
20260905231738 99 257 2.6 3.5 0.00 0.00 0.00 36 1012.0
20260905231238 100 267 1.7 3.5 0.00 0.00 0.00 35 1012.0
20260905230737 101 271 3.5 5.2 0.00 0.00 0.00 34 1012.0
20260905230237 101 274 2.6 3.5 0.00 0.00 0.00 34 1012.0
20260905225737 101 279 3.5 5.2 0.00 0.00 0.00 34 1012.0
20260905225237 101 276 3.5 6.1 0.00 0.00 0.00 33 1012.0
20260905224737 101 268 3.5 4.3 0.00 0.00 0.00 34 1012.0
20260905224237 101 268 3.5 4.3 0.00 0.00 0.00 35 1012.0
20260905223737 101 266 3.5 5.2 0.00 0.00 0.00 35 1012.0
20260905223237 101 279 2.6 4.3 0.00 0.00 0.00 35 1012.0
20260905222738 101 270 2.6 3.5 0.00 0.00 0.00 34 1012.0
20260905222237 102 271 3.5 6.1 0.00 0.00 0.00 34 1012.0
20260905221737 101 275 2.6 4.3 0.00 0.00 0.00 34 1012.0
20260905221237 101 267 3.5 3.5 0.00 0.00 0.00 33 1012.0
20260905220738 101 273 2.6 3.5 0.00 0.00 0.00 34 1012.0
20260905220237 101 267 3.5 5.2 0.00 0.00 0.00 35 1012.0
20260905215737 102 271 3.5 7.0 0.00 0.00 0.00 34 1012.0
20260905215237 102 272 2.6 3.5 0.00 0.00 0.00 34 1012.0
20260905214738 102 274 2.6 3.5 0.00 0.00 0.00 34 1012.0
20260905214236 102 263 2.6 5.2 0.00 0.00 0.00 34 1012.0
20260905213738 101 265 2.6 4.3 0.00 0.00 0.00 35 1012.0
20260905213238 101 260 2.6 3.5 0.00 0.00 0.00 34 1012.0
20260905212737 101 268 3.5 5.2 0.00 0.00 0.00 34 1012.0
20260905212239 102 271 2.6 6.1 0.00 0.00 0.00 35 1012.0
20260905211737 102 269 2.6 4.3 0.00 0.00 0.00 35 1012.0
20260905211237 102 270 1.7 2.6 0.00 0.00 0.00 36 1012.0
20260905210737 101 265 2.6 4.3 0.00 0.00 0.00 36 1012.0
20260905210238 101 262 1.7 3.5 0.00 0.00 0.00 35 1012.0
20260905205739 100 261 2.6 3.5 0.00 0.00 0.00 37 1012.0
20260905205237 100 270 3.5 6.1 0.00 0.00 0.00 37 1012.0
20260905204737 100 279 2.6 4.3 0.00 0.00 0.00 37 1013.0
20260905204237 101 264 2.6 4.3 0.00 0.00 0.00 37 1013.0
20260905203738 101 266 1.7 3.5 0.00 0.00 0.00 38 1013.0
20260905203237 101 280 2.6 4.3 0.00 0.00 0.00 38 1013.0
20260905202739 101 289 3.5 5.2 0.00 0.00 0.00 37 1013.0
20260905202239 101 283 3.5 6.1 0.00 0.00 0.00 38 1013.0
20260905201738 101 280 2.6 7.0 0.00 0.00 0.00 37 1013.0
20260905201237 100 279 3.5 5.2 0.00 0.00 0.00 38 1013.0
20260905200737 100 280 3.5 5.2 0.00 0.00 0.00 39 1013.0
20260905200238 100 276 2.6 3.5 0.00 0.00 0.00 38 1013.0
20260905195737 100 269 2.6 3.5 0.00 0.00 0.00 39 1013.0
20260905195237 99 263 2.6 3.5 0.00 0.00 0.00 40 1013.0
20260905194739 99 270 2.6 5.2 0.00 0.00 0.00 38 1014.0
20260905194238 99 287 2.6 4.3 0.00 0.00 0.00 41 1014.0
20260905193737 99 267 1.7 2.6 0.00 0.00 0.00 40 1014.0